Overview Statistics Trail Chart Weather Telemetry Raw packets
 

This is the latest recevied weather packets stored in our database for station/object 9M4GEK-3. If no packets are shown the sender has not sent any weather packets the latest 10 day(s).

<< 43 44 45 46 47 48 49 >>
Time Temp. Humidity Pressure Rain* Wind** Luminosity Snow
1787794559 35.56° C 51% 1012.4 hPa - - - -
1787794482 27.22° C 68% 1010.5 hPa - - - -
1787794342 27.22° C 67% 1010.5 hPa - - - -
1787794207 27.78° C 65% 1010.5 hPa - - - -
1787793951 27.78° C 65% 1010.6 hPa - - - -
1787793865 27.78° C 65% 1010.6 hPa - - - -
1787793722 27.78° C 65% 1010.6 hPa - - - -
1787793662 33.89° C 54% 1012.2 hPa - - - -
1787793623 27.78° C 64% 1010.6 hPa - - - -
1787793480 27.78° C 64% 1010.7 hPa - - - -
1787793300 28.33° C 63% 1010.8 hPa - - - -
1787793023 28.89° C 63% 1010.9 hPa - - - -
1787792879 28.89° C 63% 1011.1 hPa - - - -
1787792769 28.33° C 62% 1011 hPa - - - -
1787792758 32.78° C 56% 1011.9 hPa - - - -
1787792596 28.89° C 62% 1011.3 hPa - - - -
1787792246 28.33° C 64% 1011.7 hPa - - - -
1787792141 28.33° C 63% 1011.7 hPa - - - -
1787792032 28.89° C 62% 1011.8 hPa - - - -
1787791955 28.89° C 61% 1012 hPa - - - -
1787791858 32.22° C 57% 1011.7 hPa - - - -
1787791740 28.89° C 62% 1012.3 hPa - - - -
1787790958 31.11° C 61% 1011.4 hPa - - - -
1787790058 30° C 62% 1011 hPa - - - -
1787790029 28.33° C 62% 1012.4 hPa - - - -

* Rain since midnight (hover to see other rain measurements)
** Current wind speed in m/s (hover to see current wind gust speed)